Time,TemperatureF,DewpointF,PressureIn,WindDirection,WindDirectionDegrees,WindSpeedMPH,WindSpeedGustMPH,Humidity,HourlyPrecipIn,Conditions,Clouds,dailyrainin,SoftwareType,DateUTC
2013-09-01 00:00:00,70.8,69.6,29.80,SSW,206,2.0,9.0,96,0.00,,,0.01,VWS V14.01,2013-09-01 04:00:00,
2013-09-01 00:01:00,70.8,69.6,29.80,SW,214,2.0,9.0,96,0.00,,,0.01,VWS V14.01,2013-09-01 04:01:00,
2013-09-01 00:02:00,70.8,69.6,29.80,SSW,194,1.0,9.0,96,0.00,,,0.01,VWS V14.01,2013-09-01 04:02:00,
2013-09-01 00:07:00,70.8,69.6,29.80,SE,130,0.0,10.0,96,0.00,,,0.00,VWS V14.01,2013-09-01 04:07:00,
2013-09-01 00:12:00,70.8,69.6,29.80,SW,215,1.0,10.0,96,0.00,,,0.00,VWS V14.01,2013-09-01 04:12:00,
2013-09-01 00:17:00,70.8,69.6,29.80,SSW,203,3.0,10.0,96,0.00,,,0.00,VWS V14.01,2013-09-01 04:17:00,
2013-09-01 00:22:00,70.8,69.6,29.80,SSW,212,2.0,10.0,96,0.00,,,0.00,VWS V14.01,2013-09-01 04:22:00,
2013-09-01 00:27:00,70.8,69.6,29.80,SSE,155,2.0,10.0,96,0.00,,,0.00,VWS V14.01,2013-09-01 04:27:00,
2013-09-01 00:30:00,70.9,69.7,29.80,SSW,209,0.0,10.0,96,0.00,,,0.00,VWS V14.01,2013-09-01 04:30:00,
2013-09-01 00:32:00,70.9,69.7,29.80,SSW,209,0.0,10.0,96,0.00,,,0.00,VWS V14.01,2013-09-01 04:32:00,
2013-09-01 00:37:00,70.9,69.7,29.79,SSW,196,3.0,4.0,96,0.00,,,0.00,VWS V14.01,2013-09-01 04:37:00,
2013-09-01 00:42:00,70.8,69.6,29.79,SSW,197,3.0,7.0,96,0.00,,,0.00,VWS V14.01,2013-09-01 04:42:00,
2013-09-01 00:47:00,70.9,69.7,29.79,South,184,1.0,7.0,96,0.00,,,0.00,VWS V14.01,2013-09-01 04:47:00,
2013-09-01 00:52:00,70.9,69.7,29.79,South,185,8.0,8.0,96,0.00,,,0.00,VWS V14.01,2013-09-01 04:52:00,
2013-09-01 00:57:00,70.9,69.7,29.79,SSE,151,2.0,8.0,96,0.00,,,0.00,VWS V14.01,2013-09-01 04:57:00,
2013-09-01 01:00:00,71.0,69.8,29.79,SSE,167,4.0,8.0,96,0.00,,,0.00,VWS V14.01,2013-09-01 05:00:00,
2013-09-01 01:02:00,71.0,69.8,29.79,South,182,1.0,8.0,96,0.00,,,0.00,VWS V14.01,2013-09-01 05:02:00,
2013-09-01 01:07:00,71.0,69.8,29.79,SE,124,2.0,8.0,96,0.00,,,0.00,VWS V14.01,2013-09-01 05:07:00,
2013-09-01 01:12:00,71.0,69.8,29.78,South,174,1.0,11.0,96,0.00,,,0.00,VWS V14.01,2013-09-01 05:12:00,
2013-09-01 01:17:00,71.0,69.8,29.78,SSW,194,3.0,11.0,96,0.00,,,0.00,VWS V14.01,2013-09-01 05:17:00,
2013-09-01 01:22:00,71.0,69.8,29.78,SSW,201,2.0,11.0,96,0.00,,,0.00,VWS V14.01,2013-09-01 05:22:00,
2013-09-01 01:27:00,71.1,69.9,29.78,WSW,246,6.0,11.0,96,0.00,,,0.00,VWS V14.01,2013-09-01 05:27:00,
2013-09-01 01:30:00,71.1,69.9,29.78,SSW,198,4.0,11.0,96,0.00,,,0.00,VWS V14.01,2013-09-01 05:30:00,
2013-09-01 01:32:00,71.1,69.9,29.78,SSW,198,4.0,11.0,96,0.00,,,0.00,VWS V14.01,2013-09-01 05:32:00,
2013-09-01 01:37:00,71.1,69.9,29.77,South,170,4.0,10.0,96,0.00,,,0.00,VWS V14.01,2013-09-01 05:37:00,
2013-09-01 01:42:00,71.1,69.9,29.77,SW,232,5.0,10.0,96,0.00,,,0.00,VWS V14.01,2013-09-01 05:42:00,
2013-09-01 01:47:00,71.1,69.9,29.77,SW,222,4.0,10.0,96,0.00,,,0.00,VWS V14.01,2013-09-01 05:47:00,
2013-09-01 01:52:00,71.1,69.9,29.77,SE,143,2.0,10.0,96,0.00,,,0.00,VWS V14.01,2013-09-01 05:52:00,
2013-09-01 01:57:00,71.1,69.9,29.78,SE,126,4.0,10.0,96,0.00,,,0.00,VWS V14.01,2013-09-01 05:57:00,
2013-09-01 02:00:00,71.0,69.8,29.77,SW,232,6.0,10.0,96,0.00,,,0.00,VWS V14.01,2013-09-01 06:00:00,
2013-09-01 02:02:00,71.0,69.8,29.77,SW,232,6.0,10.0,96,0.00,,,0.00,VWS V14.01,2013-09-01 06:02:00,
2013-09-01 02:07:00,71.0,69.8,29.77,SSW,209,0.0,10.0,96,0.00,,,0.00,VWS V14.01,2013-09-01 06:07:00,
2013-09-01 02:12:00,71.0,70.1,29.77,West,261,1.0,10.0,97,0.00,,,0.00,VWS V14.01,2013-09-01 06:12:00,
2013-09-01 02:17:00,71.0,70.1,29.77,WSW,238,4.0,10.0,97,0.00,,,0.00,VWS V14.01,2013-09-01 06:17:00,
2013-09-01 02:22:00,70.9,70.0,29.77,SW,221,4.0,10.0,97,0.00,,,0.00,VWS V14.01,2013-09-01 06:22:00,
2013-09-01 02:27:00,70.9,70.0,29.77,SSW,198,4.0,10.0,97,0.00,,,0.00,VWS V14.01,2013-09-01 06:27:00,
2013-09-01 02:30:00,70.9,70.0,29.77,South,183,1.0,10.0,97,0.00,,,0.00,VWS V14.01,2013-09-01 06:30:00,
2013-09-01 02:32:00,70.9,70.0,29.77,SE,145,3.0,3.0,97,0.00,,,0.00,VWS V14.01,2013-09-01 06:32:00,
2013-09-01 02:37:00,70.9,70.0,29.77,SE,145,2.0,6.0,97,0.00,,,0.00,VWS V14.01,2013-09-01 06:37:00,
2013-09-01 02:42:00,70.9,70.0,29.77,SW,223,5.0,7.0,97,0.00,,,0.00,VWS V14.01,2013-09-01 06:42:00,
2013-09-01 02:47:00,70.8,69.9,29.77,SSE,153,2.0,7.0,97,0.00,,,0.00,VWS V14.01,2013-09-01 06:47:00,
2013-09-01 02:52:00,70.8,69.9,29.77,ESE,119,3.0,7.0,97,0.00,,,0.00,VWS V14.01,2013-09-01 06:52:00,
2013-09-01 02:57:00,70.8,69.9,29.77,SSW,200,0.0,7.0,97,0.00,,,0.00,VWS V14.01,2013-09-01 06:57:00,
2013-09-01 03:00:00,70.8,69.9,29.77,SW,220,1.0,9.0,97,0.00,,,0.00,VWS V14.01,2013-09-01 07:00:00,
2013-09-01 03:02:00,70.8,69.9,29.77,SW,220,1.0,9.0,97,0.00,,,0.00,VWS V14.01,2013-09-01 07:02:00,
2013-09-01 03:07:00,70.8,69.9,29.77,SSW,198,3.0,6.0,97,0.00,,,0.00,VWS V14.01,2013-09-01 07:07:00,
2013-09-01 03:12:00,70.8,69.9,29.77,SSE,155,1.0,7.0,97,0.00,,,0.00,VWS V14.01,2013-09-01 07:12:00,
2013-09-01 03:17:00,70.8,69.9,29.77,South,188,0.0,7.0,97,0.00,,,0.00,VWS V14.01,2013-09-01 07:17:00,
2013-09-01 03:22:00,70.8,69.9,29.77,SSW,192,2.0,7.0,97,0.00,,,0.00,VWS V14.01,2013-09-01 07:22:00,
2013-09-01 03:27:00,70.7,69.8,29.77,WSW,246,4.0,8.0,97,0.00,,,0.00,VWS V14.01,2013-09-01 07:27:00,
2013-09-01 03:30:00,70.7,69.8,29.77,South,188,1.0,8.0,97,0.00,,,0.00,VWS V14.01,2013-09-01 07:30:00,
2013-09-01 03:32:00,70.7,69.8,29.77,South,188,1.0,8.0,97,0.00,,,0.00,VWS V14.01,2013-09-01 07:32:00,
2013-09-01 03:37:00,70.7,69.8,29.77,SSW,192,1.0,7.0,97,0.00,,,0.00,VWS V14.01,2013-09-01 07:37:00,
2013-09-01 03:42:00,70.7,69.8,29.77,SSW,213,2.0,7.0,97,0.00,,,0.00,VWS V14.01,2013-09-01 07:42:00,
2013-09-01 03:47:00,70.7,69.8,29.77,SSW,203,2.0,10.0,97,0.00,,,0.00,VWS V14.01,2013-09-01 07:47:00,
2013-09-01 03:52:00,70.7,69.5,29.78,SE,136,1.0,10.0,96,0.00,,,0.00,VWS V14.01,2013-09-01 07:52:00,
2013-09-01 03:57:00,70.8,69.6,29.78,SW,222,2.0,10.0,96,0.00,,,0.00,VWS V14.01,2013-09-01 07:57:00,
2013-09-01 04:00:00,70.8,69.6,29.78,SSE,163,1.0,10.0,96,0.00,,,0.00,VWS V14.01,2013-09-01 08:00:00,
2013-09-01 04:02:00,70.8,69.6,29.78,SSE,163,1.0,10.0,96,0.00,,,0.00,VWS V14.01,2013-09-01 08:02:00,
2013-09-01 04:07:00,70.8,69.6,29.78,SSE,163,2.0,6.0,96,0.00,,,0.00,VWS V14.01,2013-09-01 08:07:00,
2013-09-01 04:12:00,70.9,69.7,29.78,SW,226,2.0,6.0,96,0.00,,,0.00,VWS V14.01,2013-09-01 08:12:00,
2013-09-01 04:17:00,70.9,69.7,29.78,SSW,197,0.0,6.0,96,0.00,,,0.00,VWS V14.01,2013-09-01 08:17:00,
2013-09-01 04:22:00,71.0,69.8,29.78,South,173,1.0,6.0,96,0.00,,,0.00,VWS V14.01,2013-09-01 08:22:00,
2013-09-01 04:27:00,71.0,69.8,29.78,South,178,1.0,7.0,96,0.00,,,0.00,VWS V14.01,2013-09-01 08:27:00,
2013-09-01 04:30:00,71.0,69.8,29.77,SE,146,0.0,7.0,96,0.00,,,0.00,VWS V14.01,2013-09-01 08:30:00,
2013-09-01 04:32:00,71.0,69.8,29.77,SE,146,0.0,7.0,96,0.00,,,0.00,VWS V14.01,2013-09-01 08:32:00,
2013-09-01 04:37:00,71.0,69.8,29.77,South,184,3.0,7.0,96,0.00,,,0.00,VWS V14.01,2013-09-01 08:37:00,
2013-09-01 04:42:00,71.0,69.8,29.77,South,173,0.0,7.0,96,0.00,,,0.00,VWS V14.01,2013-09-01 08:42:00,
2013-09-01 04:47:00,71.0,69.8,29.77,SSW,192,2.0,7.0,96,0.00,,,0.00,VWS V14.01,2013-09-01 08:47:00,
2013-09-01 04:52:00,71.0,69.8,29.77,SE,146,1.0,7.0,96,0.00,,,0.00,VWS V14.01,2013-09-01 08:52:00,
2013-09-01 04:57:00,71.0,69.8,29.78,ESE,103,3.0,7.0,96,0.00,,,0.00,VWS V14.01,2013-09-01 08:57:00,
2013-09-01 05:00:00,71.0,69.8,29.78,South,175,1.0,7.0,96,0.00,,,0.00,VWS V14.01,2013-09-01 09:00:00,
2013-09-01 05:02:00,71.0,69.8,29.78,South,175,1.0,7.0,96,0.00,,,0.00,VWS V14.01,2013-09-01 09:02:00,
2013-09-01 05:07:00,71.1,69.9,29.79,SW,229,0.0,4.0,96,0.00,,,0.00,VWS V14.01,2013-09-01 09:07:00,
2013-09-01 05:12:00,71.1,69.9,29.80,West,277,0.0,4.0,96,0.00,,,0.00,VWS V14.01,2013-09-01 09:12:00,
2013-09-01 05:17:00,71.2,70.0,29.80,NW,319,1.0,4.0,96,0.00,,,0.00,VWS V14.01,2013-09-01 09:17:00,
2013-09-01 05:22:00,71.2,70.0,29.80,NW,319,0.0,4.0,96,0.00,,,0.00,VWS V14.01,2013-09-01 09:22:00,
2013-09-01 05:27:00,71.3,70.1,29.80,North,5,0.0,4.0,96,0.00,,,0.00,VWS V14.01,2013-09-01 09:27:00,
2013-09-01 05:30:00,71.3,70.1,29.80,North,5,0.0,4.0,96,0.00,,,0.00,VWS V14.01,2013-09-01 09:30:00,
2013-09-01 05:32:00,71.3,70.1,29.80,North,5,0.0,4.0,96,0.00,,,0.00,VWS V14.01,2013-09-01 09:32:00,
2013-09-01 05:37:00,71.3,70.1,29.81,North,5,0.0,1.0,96,0.00,,,0.00,VWS V14.01,2013-09-01 09:37:00,
2013-09-01 05:42:00,71.3,70.1,29.82,North,355,1.0,2.0,96,0.00,,,0.00,VWS V14.01,2013-09-01 09:42:00,
2013-09-01 05:47:00,71.3,70.1,29.81,North,355,0.0,2.0,96,0.00,,,0.00,VWS V14.01,2013-09-01 09:47:00,
2013-09-01 05:52:00,71.2,70.0,29.80,East,96,0.0,3.0,96,0.00,,,0.00,VWS V14.01,2013-09-01 09:52:00,
2013-09-01 05:57:00,71.1,69.9,29.81,SSE,163,0.0,3.0,96,0.00,,,0.00,VWS V14.01,2013-09-01 09:57:00,
2013-09-01 06:00:00,71.0,69.8,29.80,SE,131,1.0,3.0,96,0.00,,,0.00,VWS V14.01,2013-09-01 10:00:00,
2013-09-01 06:02:00,71.0,69.8,29.81,SE,127,0.0,3.0,96,0.00,,,0.00,VWS V14.01,2013-09-01 10:02:00,
2013-09-01 06:07:00,70.9,69.7,29.80,SE,131,1.0,2.0,96,0.00,,,0.00,VWS V14.01,2013-09-01 10:07:00,
2013-09-01 06:12:00,70.8,69.9,29.80,SE,144,1.0,3.0,97,0.00,,,0.00,VWS V14.01,2013-09-01 10:12:00,
2013-09-01 06:17:00,70.7,69.8,29.79,SE,124,1.0,3.0,97,0.00,,,0.00,VWS V14.01,2013-09-01 10:17:00,
2013-09-01 06:22:00,70.6,69.7,29.80,SE,132,1.0,3.0,97,0.00,,,0.00,VWS V14.01,2013-09-01 10:22:00,
2013-09-01 06:27:00,70.4,69.5,29.80,SSE,157,1.0,3.0,97,0.00,,,0.00,VWS V14.01,2013-09-01 10:27:00,
2013-09-01 06:30:00,70.4,69.5,29.80,SSE,157,1.0,3.0,97,0.00,,,0.00,VWS V14.01,2013-09-01 10:30:00,
2013-09-01 06:32:00,70.4,69.5,29.80,SSE,157,1.0,3.0,97,0.00,,,0.00,VWS V14.01,2013-09-01 10:32:00,
2013-09-01 06:37:00,70.4,69.5,29.80,SSE,157,0.0,2.0,97,0.00,,,0.00,VWS V14.01,2013-09-01 10:37:00,
2013-09-01 06:42:00,70.4,69.5,29.80,SSE,148,1.0,4.0,97,0.00,,,0.00,VWS V14.01,2013-09-01 10:42:00,
2013-09-01 06:47:00,70.4,69.8,29.80,South,184,3.0,5.0,98,0.00,,,0.00,VWS V14.01,2013-09-01 10:47:00,
2013-09-01 06:52:00,70.4,69.8,29.80,SSE,150,1.0,5.0,98,0.00,,,0.00,VWS V14.01,2013-09-01 10:52:00,
2013-09-01 06:57:00,70.4,69.8,29.80,SSE,157,4.0,5.0,98,0.00,,,0.00,VWS V14.01,2013-09-01 10:57:00,
2013-09-01 07:00:00,70.4,69.8,29.80,South,170,2.0,5.0,98,0.00,,,0.00,VWS V14.01,2013-09-01 11:00:00,
2013-09-01 07:02:00,70.4,69.8,29.80,SSE,166,2.0,5.0,98,0.00,,,0.00,VWS V14.01,2013-09-01 11:02:00,
2013-09-01 07:07:00,70.5,69.9,29.80,SE,143,2.0,5.0,98,0.00,,,0.00,VWS V14.01,2013-09-01 11:07:00,
2013-09-01 07:12:00,70.5,69.9,29.81,SSE,148,3.0,5.0,98,0.00,,,0.00,VWS V14.01,2013-09-01 11:12:00,
2013-09-01 07:17:00,70.6,70.0,29.81,South,190,2.0,6.0,98,0.00,,,0.00,VWS V14.01,2013-09-01 11:17:00,
2013-09-01 07:22:00,70.6,70.0,29.81,ESE,107,2.0,7.0,98,0.00,,,0.00,VWS V14.01,2013-09-01 11:22:00,
2013-09-01 07:27:00,70.7,70.1,29.82,SSE,160,0.0,7.0,98,0.00,,,0.00,VWS V14.01,2013-09-01 11:27:00,
2013-09-01 07:30:00,70.7,70.1,29.82,South,187,0.0,7.0,98,0.00,,,0.00,VWS V14.01,2013-09-01 11:30:00,
2013-09-01 07:32:00,70.7,70.1,29.82,South,187,2.0,7.0,98,0.00,,,0.00,VWS V14.01,2013-09-01 11:32:00,
2013-09-01 07:37:00,70.6,70.0,29.82,SSE,159,2.0,7.0,98,0.00,,,0.00,VWS V14.01,2013-09-01 11:37:00,
2013-09-01 07:42:00,70.6,70.0,29.81,SW,230,2.0,7.0,98,0.00,,,0.00,VWS V14.01,2013-09-01 11:42:00,
2013-09-01 07:47:00,70.5,69.9,29.81,South,184,4.0,7.0,98,0.00,,,0.00,VWS V14.01,2013-09-01 11:47:00,
2013-09-01 07:52:00,70.6,70.0,29.81,SSW,193,1.0,7.0,98,0.00,,,0.00,VWS V14.01,2013-09-01 11:52:00,
2013-09-01 07:57:00,70.6,70.0,29.82,SSW,192,0.0,7.0,98,0.00,,,0.00,VWS V14.01,2013-09-01 11:57:00,
2013-09-01 08:00:00,70.6,70.0,29.81,South,183,2.0,7.0,98,0.00,,,0.00,VWS V14.01,2013-09-01 12:00:00,
2013-09-01 08:02:00,70.6,70.0,29.81,South,180,2.0,7.0,98,0.00,,,0.00,VWS V14.01,2013-09-01 12:02:00,
2013-09-01 08:07:00,70.7,70.1,29.81,SSW,194,6.0,7.0,98,0.00,,,0.00,VWS V14.01,2013-09-01 12:07:00,
2013-09-01 08:12:00,70.8,70.2,29.81,SSE,158,2.0,7.0,98,0.00,,,0.00,VWS V14.01,2013-09-01 12:12:00,
2013-09-01 08:17:00,70.9,70.3,29.81,South,171,2.0,7.0,98,0.00,,,0.00,VWS V14.01,2013-09-01 12:17:00,
2013-09-01 08:22:00,71.1,70.5,29.81,South,190,1.0,7.0,98,0.00,,,0.00,VWS V14.01,2013-09-01 12:22:00,
2013-09-01 08:27:00,71.1,70.5,29.81,SE,134,1.0,7.0,98,0.00,,,0.00,VWS V14.01,2013-09-01 12:27:00,
2013-09-01 08:30:00,71.1,70.5,29.81,SSE,159,2.0,7.0,98,0.00,,,0.00,VWS V14.01,2013-09-01 12:30:00,
2013-09-01 08:32:00,71.1,70.5,29.81,SSE,151,1.0,7.0,98,0.00,,,0.00,VWS V14.01,2013-09-01 12:32:00,
2013-09-01 08:37:00,71.2,70.6,29.81,South,175,2.0,9.0,98,0.00,,,0.00,VWS V14.01,2013-09-01 12:37:00,
2013-09-01 08:42:00,71.2,70.9,29.81,SE,137,8.0,9.0,99,0.00,,,0.00,VWS V14.01,2013-09-01 12:42:00,
2013-09-01 08:47:00,71.2,70.9,29.80,SE,143,3.0,9.0,99,0.00,,,0.00,VWS V14.01,2013-09-01 12:47:00,
2013-09-01 08:52:00,71.3,71.0,29.80,SSE,150,2.0,10.0,99,0.00,,,0.00,VWS V14.01,2013-09-01 12:52:00,
2013-09-01 08:57:00,71.4,71.1,29.80,SW,217,4.0,10.0,99,0.00,,,0.00,VWS V14.01,2013-09-01 12:57:00,
2013-09-01 09:00:00,71.4,71.1,29.80,SSW,195,4.0,10.0,99,0.00,,,0.00,VWS V14.01,2013-09-01 13:00:00,
2013-09-01 09:02:00,71.4,71.1,29.80,SSW,200,4.0,10.0,99,0.00,,,0.00,VWS V14.01,2013-09-01 13:02:00,
2013-09-01 09:07:00,71.3,70.7,29.80,South,188,3.0,9.0,98,0.00,,,0.00,VWS V14.01,2013-09-01 13:07:00,
2013-09-01 09:12:00,71.3,71.0,29.80,SSE,159,5.0,9.0,99,0.00,,,0.00,VWS V14.01,2013-09-01 13:12:00,
2013-09-01 09:17:00,71.2,70.9,29.81,SW,220,2.0,9.0,99,0.00,,,0.00,VWS V14.01,2013-09-01 13:17:00,
2013-09-01 09:22:00,71.2,70.9,29.81,South,170,2.0,10.0,99,0.00,,,0.00,VWS V14.01,2013-09-01 13:22:00,
2013-09-01 09:27:00,71.2,70.9,29.81,SSE,161,4.0,12.0,99,0.00,,,0.00,VWS V14.01,2013-09-01 13:27:00,
2013-09-01 09:30:00,71.1,70.8,29.81,SSW,194,4.0,12.0,99,0.00,,,0.00,VWS V14.01,2013-09-01 13:30:00,
2013-09-01 09:32:00,71.2,70.9,29.81,SSW,195,3.0,12.0,99,0.00,,,0.00,VWS V14.01,2013-09-01 13:32:00,
2013-09-01 09:37:00,71.2,70.9,29.82,SSE,159,4.0,6.0,99,0.00,,,0.00,VWS V14.01,2013-09-01 13:37:00,
2013-09-01 09:42:00,71.1,70.8,29.81,SSE,155,2.0,12.0,99,0.00,,,0.00,VWS V14.01,2013-09-01 13:42:00,
2013-09-01 09:47:00,71.1,70.8,29.81,SSE,168,0.0,12.0,99,0.00,,,0.00,VWS V14.01,2013-09-01 13:47:00,
2013-09-01 09:52:00,71.1,70.5,29.82,South,180,5.0,12.0,98,0.00,,,0.00,VWS V14.01,2013-09-01 13:52:00,
2013-09-01 09:57:00,71.2,70.9,29.82,SSW,196,0.0,12.0,99,0.00,,,0.00,VWS V14.01,2013-09-01 13:57:00,
2013-09-01 10:00:00,71.2,70.9,29.82,South,186,4.0,12.0,99,0.00,,,0.00,VWS V14.01,2013-09-01 14:00:00,
2013-09-01 10:02:00,71.2,70.9,29.82,SE,126,2.0,12.0,99,0.00,,,0.00,VWS V14.01,2013-09-01 14:02:00,
2013-09-01 10:07:00,71.2,70.9,29.83,SW,215,4.0,6.0,99,0.00,,,0.00,VWS V14.01,2013-09-01 14:07:00,
2013-09-01 10:12:00,71.2,70.9,29.83,SW,234,0.0,6.0,99,0.00,,,0.00,VWS V14.01,2013-09-01 14:12:00,
2013-09-01 10:17:00,71.1,70.8,29.83,SSW,205,3.0,6.0,99,0.00,,,0.00,VWS V14.01,2013-09-01 14:17:00,
2013-09-01 10:22:00,71.1,70.8,29.83,SSE,156,2.0,6.0,99,0.00,,,0.00,VWS V14.01,2013-09-01 14:22:00,
2013-09-01 10:27:00,71.1,70.8,29.83,SW,221,1.0,6.0,99,0.00,,,0.00,VWS V14.01,2013-09-01 14:27:00,
2013-09-01 10:30:00,71.1,70.5,29.83,South,184,2.0,6.0,98,0.00,,,0.00,VWS V14.01,2013-09-01 14:30:00,
2013-09-01 10:32:00,71.1,70.5,29.83,South,180,1.0,6.0,98,0.00,,,0.00,VWS V14.01,2013-09-01 14:32:00,
2013-09-01 10:37:00,71.0,70.4,29.83,SSW,201,4.0,6.0,98,0.00,,,0.00,VWS V14.01,2013-09-01 14:37:00,
2013-09-01 10:42:00,71.0,70.4,29.83,SW,227,1.0,6.0,98,0.00,,,0.00,VWS V14.01,2013-09-01 14:42:00,
2013-09-01 10:47:00,71.1,70.5,29.83,WSW,250,2.0,6.0,98,0.00,,,0.00,VWS V14.01,2013-09-01 14:47:00,
2013-09-01 10:52:00,71.1,70.5,29.83,SSW,213,2.0,6.0,98,0.00,,,0.00,VWS V14.01,2013-09-01 14:52:00,
2013-09-01 10:57:00,71.1,70.5,29.83,ESE,107,1.0,6.0,98,0.00,,,0.00,VWS V14.01,2013-09-01 14:57:00,
2013-09-01 11:00:00,71.1,70.5,29.83,SSW,192,2.0,6.0,98,0.00,,,0.00,VWS V14.01,2013-09-01 15:00:00,
2013-09-01 11:02:00,71.1,70.5,29.83,SSW,192,2.0,6.0,98,0.00,,,0.00,VWS V14.01,2013-09-01 15:02:00,
2013-09-01 11:07:00,71.1,70.8,29.83,SW,219,2.0,5.0,99,0.00,,,0.00,VWS V14.01,2013-09-01 15:07:00,
2013-09-01 11:12:00,71.2,70.9,29.83,SSW,207,0.0,5.0,99,0.00,,,0.00,VWS V14.01,2013-09-01 15:12:00,
2013-09-01 11:17:00,71.2,70.9,29.83,SW,225,0.0,5.0,99,0.00,,,0.00,VWS V14.01,2013-09-01 15:17:00,
2013-09-01 11:22:00,71.2,70.9,29.83,SW,216,1.0,6.0,99,0.00,,,0.00,VWS V14.01,2013-09-01 15:22:00,
2013-09-01 11:27:00,71.2,70.9,29.83,SW,236,2.0,6.0,99,0.00,,,0.00,VWS V14.01,2013-09-01 15:27:00,
2013-09-01 11:30:00,71.2,70.9,29.83,SSE,165,4.0,6.0,99,0.00,,,0.00,VWS V14.01,2013-09-01 15:30:00,
2013-09-01 11:32:00,71.2,70.9,29.83,SSW,205,2.0,6.0,99,0.00,,,0.00,VWS V14.01,2013-09-01 15:32:00,
2013-09-01 11:37:00,71.3,71.0,29.84,SSW,208,0.0,5.0,99,0.00,,,0.00,VWS V14.01,2013-09-01 15:37:00,
2013-09-01 11:42:00,71.3,71.0,29.83,SW,215,2.0,6.0,99,0.00,,,0.00,VWS V14.01,2013-09-01 15:42:00,
2013-09-01 11:47:00,71.5,71.2,29.83,South,188,3.0,6.0,99,0.00,,,0.00,VWS V14.01,2013-09-01 15:47:00,
2013-09-01 11:52:00,71.7,71.4,29.83,SW,219,0.0,7.0,99,0.00,,,0.00,VWS V14.01,2013-09-01 15:52:00,
2013-09-01 11:57:00,71.8,71.5,29.83,SSW,196,3.0,7.0,99,0.00,,,0.00,VWS V14.01,2013-09-01 15:57:00,
2013-09-01 12:00:00,71.8,71.5,29.83,SW,216,1.0,8.0,99,0.00,,,0.00,VWS V14.01,2013-09-01 16:00:00,
2013-09-01 12:02:00,71.8,71.5,29.83,SW,216,2.0,8.0,99,0.00,,,0.00,VWS V14.01,2013-09-01 16:02:00,
2013-09-01 12:07:00,71.8,71.5,29.83,SW,219,1.0,6.0,99,0.00,,,0.00,VWS V14.01,2013-09-01 16:07:00,
2013-09-01 12:12:00,71.9,71.6,29.83,South,185,1.0,6.0,99,0.00,,,0.00,VWS V14.01,2013-09-01 16:12:00,
2013-09-01 12:17:00,71.9,71.6,29.82,SSE,167,1.0,6.0,99,0.00,,,0.00,VWS V14.01,2013-09-01 16:17:00,
2013-09-01 12:22:00,72.0,71.7,29.82,SSW,201,3.0,6.0,99,0.00,,,0.00,VWS V14.01,2013-09-01 16:22:00,
2013-09-01 12:27:00,72.2,71.9,29.82,SE,135,1.0,6.0,99,0.00,,,0.00,VWS V14.01,2013-09-01 16:27:00,
2013-09-01 12:30:00,72.2,71.6,29.82,South,182,3.0,7.0,98,0.00,,,0.00,VWS V14.01,2013-09-01 16:30:00,
2013-09-01 12:32:00,72.1,71.5,29.82,SSE,147,2.0,7.0,98,0.00,,,0.00,VWS V14.01,2013-09-01 16:32:00,
2013-09-01 12:37:00,72.2,71.6,29.82,SSW,202,2.0,6.0,98,0.00,,,0.00,VWS V14.01,2013-09-01 16:37:00,
2013-09-01 12:42:00,72.1,71.5,29.82,SE,124,4.0,7.0,98,0.00,,,0.00,VWS V14.01,2013-09-01 16:42:00,
2013-09-01 12:47:00,72.2,71.6,29.82,South,179,1.0,8.0,98,0.00,,,0.00,VWS V14.01,2013-09-01 16:47:00,
2013-09-01 12:52:00,72.2,71.6,29.81,South,184,3.0,9.0,98,0.00,,,0.00,VWS V14.01,2013-09-01 16:52:00,
2013-09-01 12:57:00,72.3,71.7,29.81,South,173,2.0,9.0,98,0.00,,,0.00,VWS V14.01,2013-09-01 16:57:00,
2013-09-01 13:00:00,72.3,71.7,29.81,SSE,155,3.0,9.0,98,0.00,,,0.00,VWS V14.01,2013-09-01 17:00:00,
2013-09-01 13:02:00,72.3,71.7,29.81,SSW,193,3.0,9.0,98,0.00,,,0.00,VWS V14.01,2013-09-01 17:02:00,
2013-09-01 13:07:00,72.5,71.9,29.81,SE,125,2.0,6.0,98,0.00,,,0.00,VWS V14.01,2013-09-01 17:07:00,
2013-09-01 13:12:00,72.7,71.8,29.81,SSW,192,1.0,9.0,97,0.00,,,0.00,VWS V14.01,2013-09-01 17:12:00,
2013-09-01 13:17:00,72.6,71.7,29.81,South,191,1.0,10.0,97,0.00,,,0.00,VWS V14.01,2013-09-01 17:17:00,
2013-09-01 13:22:00,72.6,71.7,29.81,SE,139,2.0,10.0,97,0.00,,,0.00,VWS V14.01,2013-09-01 17:22:00,
2013-09-01 13:27:00,72.7,71.8,29.81,South,184,2.0,10.0,97,0.00,,,0.00,VWS V14.01,2013-09-01 17:27:00,
2013-09-01 13:30:00,72.7,71.8,29.81,South,185,2.0,10.0,97,0.00,,,0.00,VWS V14.01,2013-09-01 17:30:00,
2013-09-01 13:32:00,72.7,71.8,29.81,South,185,2.0,10.0,97,0.00,,,0.00,VWS V14.01,2013-09-01 17:32:00,
2013-09-01 13:37:00,72.7,71.5,29.81,South,181,1.0,6.0,96,0.00,,,0.00,VWS V14.01,2013-09-01 17:37:00,
2013-09-01 13:42:00,72.8,71.6,29.81,SW,223,2.0,8.0,96,0.00,,,0.00,VWS V14.01,2013-09-01 17:42:00,
2013-09-01 13:47:00,72.7,71.5,29.81,South,178,4.0,11.0,96,0.00,,,0.00,VWS V14.01,2013-09-01 17:47:00,
2013-09-01 13:52:00,72.8,71.6,29.81,SSW,213,7.0,11.0,96,0.00,,,0.00,VWS V14.01,2013-09-01 17:52:00,
2013-09-01 13:57:00,73.1,72.2,29.81,South,171,3.0,11.0,97,0.00,,,0.00,VWS V14.01,2013-09-01 17:57:00,
2013-09-01 14:00:00,73.3,72.1,29.81,SSW,202,2.0,11.0,96,0.00,,,0.00,VWS V14.01,2013-09-01 18:00:00,
2013-09-01 14:02:00,73.3,72.1,29.81,WSW,244,2.0,11.0,96,0.00,,,0.00,VWS V14.01,2013-09-01 18:02:00,
2013-09-01 14:07:00,73.4,72.2,29.81,ESE,121,1.0,5.0,96,0.00,,,0.00,VWS V14.01,2013-09-01 18:07:00,
2013-09-01 14:12:00,73.3,72.1,29.82,South,188,0.0,7.0,96,0.00,,,0.00,VWS V14.01,2013-09-01 18:12:00,
2013-09-01 14:17:00,73.3,71.8,29.81,South,190,4.0,7.0,95,0.00,,,0.00,VWS V14.01,2013-09-01 18:17:00,
2013-09-01 14:22:00,73.3,71.8,29.81,ESE,121,2.0,9.0,95,0.00,,,0.00,VWS V14.01,2013-09-01 18:22:00,
2013-09-01 14:26:00,73.3,71.8,29.81,ESE,119,2.0,9.0,95,0.00,,,0.00,VWS V14.01,2013-09-01 18:26:00,
2013-09-01 14:30:00,73.2,71.7,29.81,South,188,0.0,9.0,95,0.00,,,0.00,VWS V14.01,2013-09-01 18:30:00,
2013-09-01 14:31:00,73.2,71.7,29.81,South,188,3.0,9.0,95,0.00,,,0.00,VWS V14.01,2013-09-01 18:31:00,
2013-09-01 14:36:00,73.1,71.6,29.81,WSW,240,1.0,6.0,95,0.00,,,0.00,VWS V14.01,2013-09-01 18:36:00,
2013-09-01 14:41:00,73.1,71.6,29.81,SW,228,6.0,7.0,95,0.00,,,0.00,VWS V14.01,2013-09-01 18:41:00,
2013-09-01 14:46:00,73.1,71.9,29.82,SSW,207,2.0,7.0,96,0.00,,,0.00,VWS V14.01,2013-09-01 18:46:00,
2013-09-01 14:51:00,73.2,72.0,29.82,SSW,196,2.0,7.0,96,0.00,,,0.00,VWS V14.01,2013-09-01 18:51:00,
2013-09-01 14:56:00,73.3,71.8,29.82,South,184,4.0,7.0,95,0.00,,,0.00,VWS V14.01,2013-09-01 18:56:00,
2013-09-01 15:00:00,73.5,72.0,29.82,South,169,4.0,7.0,95,0.00,,,0.00,VWS V14.01,2013-09-01 19:00:00,
2013-09-01 15:01:00,73.5,72.0,29.82,SSW,198,3.0,7.0,95,0.00,,,0.00,VWS V14.01,2013-09-01 19:01:00,
2013-09-01 15:06:00,73.7,72.2,29.82,South,181,2.0,7.0,95,0.00,,,0.00,VWS V14.01,2013-09-01 19:06:00,
2013-09-01 15:11:00,73.8,72.3,29.81,SW,229,3.0,7.0,95,0.00,,,0.00,VWS V14.01,2013-09-01 19:11:00,
2013-09-01 15:16:00,73.8,72.0,29.81,SSE,168,1.0,9.0,94,0.00,,,0.00,VWS V14.01,2013-09-01 19:16:00,
2013-09-01 15:21:00,73.7,71.9,29.81,West,269,6.0,9.0,94,0.00,,,0.00,VWS V14.01,2013-09-01 19:21:00,
2013-09-01 15:26:00,73.6,71.8,29.81,SSW,194,3.0,9.0,94,0.00,,,0.00,VWS V14.01,2013-09-01 19:26:00,
2013-09-01 15:30:00,73.5,71.7,29.81,SSW,211,3.0,9.0,94,0.00,,,0.00,VWS V14.01,2013-09-01 19:30:00,
2013-09-01 15:31:00,73.5,71.7,29.81,SSW,209,3.0,9.0,94,0.00,,,0.00,VWS V14.01,2013-09-01 19:31:00,
2013-09-01 15:36:00,73.5,72.0,29.81,SW,222,2.0,7.0,95,0.00,,,0.00,VWS V14.01,2013-09-01 19:36:00,
2013-09-01 15:41:00,73.7,72.2,29.81,South,186,3.0,8.0,95,0.00,,,0.00,VWS V14.01,2013-09-01 19:41:00,
2013-09-01 15:46:00,73.7,72.2,29.81,SE,140,2.0,8.0,95,0.00,,,0.00,VWS V14.01,2013-09-01 19:46:00,
2013-09-01 15:51:00,73.7,71.9,29.81,SSW,198,2.0,8.0,94,0.00,,,0.00,VWS V14.01,2013-09-01 19:51:00,
2013-09-01 15:56:00,73.7,71.9,29.81,SSE,153,2.0,9.0,94,0.00,,,0.00,VWS V14.01,2013-09-01 19:56:00,
2013-09-01 16:00:00,73.6,71.8,29.81,SSW,211,2.0,9.0,94,0.00,,,0.00,VWS V14.01,2013-09-01 20:00:00,
2013-09-01 16:01:00,73.6,71.8,29.81,SSE,150,2.0,9.0,94,0.00,,,0.00,VWS V14.01,2013-09-01 20:01:00,
2013-09-01 16:06:00,73.5,71.7,29.81,South,172,3.0,7.0,94,0.00,,,0.00,VWS V14.01,2013-09-01 20:06:00,
2013-09-01 16:11:00,73.4,71.6,29.81,SW,234,2.0,7.0,94,0.00,,,0.00,VWS V14.01,2013-09-01 20:11:00,
2013-09-01 16:16:00,73.4,71.6,29.81,SSE,167,3.0,8.0,94,0.00,,,0.00,VWS V14.01,2013-09-01 20:16:00,
2013-09-01 16:21:00,73.2,71.4,29.81,SSE,167,3.0,8.0,94,0.00,,,0.00,VWS V14.01,2013-09-01 20:21:00,
2013-09-01 16:26:00,73.1,71.6,29.81,SE,135,3.0,8.0,95,0.00,,,0.00,VWS V14.01,2013-09-01 20:26:00,
2013-09-01 16:30:00,73.1,71.6,29.81,SW,217,2.0,8.0,95,0.00,,,0.00,VWS V14.01,2013-09-01 20:30:00,
2013-09-01 16:31:00,73.1,71.6,29.81,SW,223,4.0,8.0,95,0.00,,,0.00,VWS V14.01,2013-09-01 20:31:00,
2013-09-01 16:36:00,73.0,71.5,29.81,SSE,153,4.0,8.0,95,0.00,,,0.00,VWS V14.01,2013-09-01 20:36:00,
2013-09-01 16:41:00,72.9,71.4,29.82,SSE,148,3.0,8.0,95,0.00,,,0.00,VWS V14.01,2013-09-01 20:41:00,
2013-09-01 16:46:00,72.8,71.3,29.81,South,182,1.0,8.0,95,0.00,,,0.00,VWS V14.01,2013-09-01 20:46:00,
2013-09-01 16:51:00,72.8,71.3,29.82,South,180,2.0,8.0,95,0.00,,,0.00,VWS V14.01,2013-09-01 20:51:00,
2013-09-01 16:56:00,72.7,71.2,29.82,SW,229,0.0,8.0,95,0.00,,,0.00,VWS V14.01,2013-09-01 20:56:00,
2013-09-01 17:00:00,72.7,71.2,29.82,SSW,207,0.0,8.0,95,0.00,,,0.00,VWS V14.01,2013-09-01 21:00:00,
2013-09-01 17:01:00,72.7,71.2,29.82,SSW,207,1.0,8.0,95,0.00,,,0.00,VWS V14.01,2013-09-01 21:01:00,
2013-09-01 17:06:00,72.7,71.2,29.82,SSE,158,1.0,4.0,95,0.00,,,0.00,VWS V14.01,2013-09-01 21:06:00,
2013-09-01 17:11:00,72.7,71.2,29.81,SSW,202,0.0,4.0,95,0.00,,,0.00,VWS V14.01,2013-09-01 21:11:00,
2013-09-01 17:16:00,72.7,71.2,29.81,SSW,202,3.0,4.0,95,0.00,,,0.00,VWS V14.01,2013-09-01 21:16:00,
2013-09-01 17:21:00,72.6,71.1,29.81,SSE,164,1.0,7.0,95,0.00,,,0.00,VWS V14.01,2013-09-01 21:21:00,
2013-09-01 17:26:00,72.6,71.4,29.81,SW,235,0.0,7.0,96,0.00,,,0.00,VWS V14.01,2013-09-01 21:26:00,
2013-09-01 17:30:00,72.6,71.4,29.82,SSW,194,1.0,7.0,96,0.00,,,0.00,VWS V14.01,2013-09-01 21:30:00,
2013-09-01 17:31:00,72.6,71.4,29.82,SSW,194,1.0,7.0,96,0.00,,,0.00,VWS V14.01,2013-09-01 21:31:00,
2013-09-01 17:36:00,72.7,71.5,29.82,SSW,196,2.0,3.0,96,0.00,,,0.00,VWS V14.01,2013-09-01 21:36:00,
2013-09-01 17:41:00,72.7,71.5,29.82,SSW,211,1.0,4.0,96,0.00,,,0.00,VWS V14.01,2013-09-01 21:41:00,
2013-09-01 17:46:00,72.7,71.5,29.82,WSW,242,4.0,4.0,96,0.00,,,0.00,VWS V14.01,2013-09-01 21:46:00,
2013-09-01 17:51:00,72.7,71.5,29.82,South,189,2.0,6.0,96,0.00,,,0.00,VWS V14.01,2013-09-01 21:51:00,
2013-09-01 17:56:00,72.7,71.5,29.82,SW,221,0.0,6.0,96,0.00,,,0.00,VWS V14.01,2013-09-01 21:56:00,
2013-09-01 18:00:00,72.7,71.5,29.82,SSW,198,0.0,6.0,96,0.00,,,0.00,VWS V14.01,2013-09-01 22:00:00,
2013-09-01 18:01:00,72.7,71.5,29.82,SSW,198,1.0,6.0,96,0.00,,,0.00,VWS V14.01,2013-09-01 22:01:00,
2013-09-01 18:06:00,72.7,71.5,29.81,SW,229,6.0,7.0,96,0.00,,,0.00,VWS V14.01,2013-09-01 22:06:00,
2013-09-01 18:11:00,72.7,71.5,29.82,South,182,3.0,7.0,96,0.00,,,0.00,VWS V14.01,2013-09-01 22:11:00,
2013-09-01 18:16:00,72.8,71.6,29.82,South,178,2.0,7.0,96,0.00,,,0.00,VWS V14.01,2013-09-01 22:16:00,
2013-09-01 18:21:00,72.8,71.6,29.81,SW,224,1.0,7.0,96,0.00,,,0.00,VWS V14.01,2013-09-01 22:21:00,
2013-09-01 18:26:00,72.7,71.5,29.81,SSE,160,1.0,7.0,96,0.00,,,0.00,VWS V14.01,2013-09-01 22:26:00,
2013-09-01 18:30:00,72.7,71.5,29.81,SSW,193,0.0,7.0,96,0.00,,,0.00,VWS V14.01,2013-09-01 22:30:00,
2013-09-01 18:31:00,72.8,71.6,29.81,SSW,193,0.0,7.0,96,0.00,,,0.00,VWS V14.01,2013-09-01 22:31:00,
2013-09-01 18:36:00,72.7,71.5,29.81,ESE,105,4.0,5.0,96,0.00,,,0.00,VWS V14.01,2013-09-01 22:36:00,
2013-09-01 18:41:00,72.6,71.4,29.81,SSE,147,3.0,5.0,96,0.00,,,0.00,VWS V14.01,2013-09-01 22:41:00,
2013-09-01 18:46:00,72.5,71.3,29.82,SSW,192,2.0,5.0,96,0.00,,,0.00,VWS V14.01,2013-09-01 22:46:00,
2013-09-01 18:51:00,72.4,71.2,29.82,SE,135,0.0,5.0,96,0.00,,,0.00,VWS V14.01,2013-09-01 22:51:00,
2013-09-01 18:56:00,72.4,71.2,29.82,South,188,4.0,5.0,96,0.00,,,0.00,VWS V14.01,2013-09-01 22:56:00,
2013-09-01 19:00:00,72.3,71.1,29.82,SSW,197,0.0,5.0,96,0.00,,,0.00,VWS V14.01,2013-09-01 23:00:00,
2013-09-01 19:01:00,72.3,71.1,29.82,SSW,197,1.0,5.0,96,0.00,,,0.00,VWS V14.01,2013-09-01 23:01:00,
2013-09-01 19:06:00,72.3,71.1,29.82,SSW,208,0.0,4.0,96,0.00,,,0.00,VWS V14.01,2013-09-01 23:06:00,
2013-09-01 19:11:00,72.2,71.0,29.81,SSE,161,1.0,4.0,96,0.00,,,0.00,VWS V14.01,2013-09-01 23:11:00,
2013-09-01 19:16:00,72.1,70.9,29.81,SSW,198,1.0,5.0,96,0.00,,,0.00,VWS V14.01,2013-09-01 23:16:00,
2013-09-01 19:21:00,72.1,70.9,29.81,SSW,206,1.0,5.0,96,0.00,,,0.00,VWS V14.01,2013-09-01 23:21:00,
2013-09-01 19:26:00,71.9,70.7,29.81,SSW,206,1.0,5.0,96,0.00,,,0.00,VWS V14.01,2013-09-01 23:26:00,
2013-09-01 19:30:00,71.9,71.0,29.81,SSW,209,0.0,5.0,97,0.00,,,0.00,VWS V14.01,2013-09-01 23:30:00,
2013-09-01 19:31:00,71.9,70.7,29.81,SSW,206,0.0,5.0,96,0.00,,,0.00,VWS V14.01,2013-09-01 23:31:00,
2013-09-01 19:36:00,71.9,71.0,29.81,SSW,208,3.0,3.0,97,0.00,,,0.00,VWS V14.01,2013-09-01 23:36:00,
2013-09-01 19:41:00,71.8,70.9,29.81,ESE,109,1.0,4.0,97,0.00,,,0.00,VWS V14.01,2013-09-01 23:41:00,
2013-09-01 19:46:00,71.7,70.8,29.81,SE,141,1.0,4.0,97,0.00,,,0.00,VWS V14.01,2013-09-01 23:46:00,
2013-09-01 19:51:00,71.7,70.8,29.81,South,179,1.0,4.0,97,0.00,,,0.00,VWS V14.01,2013-09-01 23:51:00,
2013-09-01 19:56:00,71.7,70.8,29.81,SSE,162,3.0,4.0,97,0.00,,,0.00,VWS V14.01,2013-09-01 23:56:00,
2013-09-01 20:00:00,71.6,70.7,29.82,SE,134,1.0,4.0,97,0.00,,,0.00,VWS V14.01,2013-09-02 00:00:00,
2013-09-01 20:01:00,71.6,70.7,29.82,SE,134,0.0,4.0,97,0.00,,,0.00,VWS V14.01,2013-09-02 00:01:00,
2013-09-01 20:06:00,71.6,70.7,29.82,South,173,1.0,3.0,97,0.00,,,0.00,VWS V14.01,2013-09-02 00:06:00,
2013-09-01 20:11:00,71.6,70.7,29.82,South,173,0.0,3.0,97,0.00,,,0.00,VWS V14.01,2013-09-02 00:11:00,
2013-09-01 20:16:00,71.6,70.7,29.82,South,173,0.0,3.0,97,0.00,,,0.00,VWS V14.01,2013-09-02 00:16:00,
2013-09-01 20:21:00,71.6,70.7,29.82,South,175,0.0,3.0,97,0.00,,,0.00,VWS V14.01,2013-09-02 00:21:00,
2013-09-01 20:26:00,71.6,70.7,29.82,South,175,0.0,3.0,97,0.00,,,0.00,VWS V14.01,2013-09-02 00:26:00,
2013-09-01 20:30:00,71.6,70.7,29.82,South,175,1.0,3.0,97,0.00,,,0.00,VWS V14.01,2013-09-02 00:30:00,
2013-09-01 20:31:00,71.6,70.7,29.82,South,175,0.0,3.0,97,0.00,,,0.00,VWS V14.01,2013-09-02 00:31:00,
2013-09-01 20:36:00,71.6,70.7,29.83,South,175,0.0,2.0,97,0.00,,,0.00,VWS V14.01,2013-09-02 00:36:00,
2013-09-01 20:41:00,71.6,70.7,29.83,South,175,1.0,2.0,97,0.00,,,0.00,VWS V14.01,2013-09-02 00:41:00,
2013-09-01 20:46:00,71.6,70.7,29.83,South,175,0.0,2.0,97,0.00,,,0.00,VWS V14.01,2013-09-02 00:46:00,
2013-09-01 20:51:00,71.5,70.6,29.83,South,175,0.0,2.0,97,0.00,,,0.00,VWS V14.01,2013-09-02 00:51:00,
2013-09-01 20:56:00,71.6,70.7,29.83,South,175,0.0,2.0,97,0.00,,,0.00,VWS V14.01,2013-09-02 00:56:00,
2013-09-01 21:00:00,71.7,70.8,29.83,South,175,0.0,2.0,97,0.00,,,0.00,VWS V14.01,2013-09-02 01:00:00,
2013-09-01 21:01:00,71.7,71.1,29.83,South,175,0.0,2.0,98,0.00,,,0.00,VWS V14.01,2013-09-02 01:01:00,
2013-09-01 21:06:00,71.7,71.1,29.83,South,175,0.0,1.0,98,0.00,,,0.00,VWS V14.01,2013-09-02 01:06:00,
2013-09-01 21:11:00,71.7,71.1,29.83,South,175,0.0,1.0,98,0.00,,,0.00,VWS V14.01,2013-09-02 01:11:00,
2013-09-01 21:16:00,71.6,70.7,29.83,South,175,0.0,1.0,97,0.00,,,0.00,VWS V14.01,2013-09-02 01:16:00,
2013-09-01 21:21:00,71.7,71.1,29.83,SSE,151,0.0,3.0,98,0.00,,,0.00,VWS V14.01,2013-09-02 01:21:00,
2013-09-01 21:26:00,71.7,71.1,29.83,SE,144,2.0,3.0,98,0.00,,,0.00,VWS V14.01,2013-09-02 01:26:00,
2013-09-01 21:30:00,71.7,71.1,29.83,SE,128,1.0,3.0,98,0.00,,,0.00,VWS V14.01,2013-09-02 01:30:00,
2013-09-01 21:31:00,71.7,71.1,29.83,SE,126,0.0,3.0,98,0.00,,,0.00,VWS V14.01,2013-09-02 01:31:00,
2013-09-01 21:36:00,71.7,71.1,29.83,SE,124,0.0,4.0,98,0.00,,,0.00,VWS V14.01,2013-09-02 01:36:00,
2013-09-01 21:41:00,71.7,71.1,29.83,South,184,2.0,4.0,98,0.00,,,0.00,VWS V14.01,2013-09-02 01:41:00,
2013-09-01 21:46:00,71.8,71.2,29.83,SSE,163,4.0,6.0,98,0.00,,,0.00,VWS V14.01,2013-09-02 01:46:00,
2013-09-01 21:51:00,71.9,71.3,29.83,South,174,4.0,6.0,98,0.00,,,0.00,VWS V14.01,2013-09-02 01:51:00,
2013-09-01 21:56:00,71.9,71.3,29.83,SSE,157,1.0,6.0,98,0.00,,,0.00,VWS V14.01,2013-09-02 01:56:00,
2013-09-01 22:00:00,71.9,71.3,29.82,SE,142,3.0,6.0,98,0.00,,,0.00,VWS V14.01,2013-09-02 02:00:00,
2013-09-01 22:01:00,71.9,71.3,29.83,SE,134,3.0,6.0,98,0.00,,,0.00,VWS V14.01,2013-09-02 02:01:00,
2013-09-01 22:06:00,72.0,71.4,29.82,SSE,149,5.0,5.0,98,0.00,,,0.00,VWS V14.01,2013-09-02 02:06:00,
2013-09-01 22:11:00,72.1,71.5,29.82,SE,135,3.0,5.0,98,0.00,,,0.00,VWS V14.01,2013-09-02 02:11:00,
2013-09-01 22:16:00,72.1,71.2,29.82,SE,139,2.0,5.0,97,0.00,,,0.00,VWS V14.01,2013-09-02 02:16:00,
2013-09-01 22:21:00,72.2,71.3,29.82,SE,130,4.0,6.0,97,0.00,,,0.00,VWS V14.01,2013-09-02 02:21:00,
2013-09-01 22:26:00,72.2,71.3,29.83,SE,144,2.0,6.0,97,0.00,,,0.00,VWS V14.01,2013-09-02 02:26:00,
2013-09-01 22:30:00,72.3,71.4,29.83,SE,144,2.0,6.0,97,0.00,,,0.00,VWS V14.01,2013-09-02 02:30:00,
2013-09-01 22:31:00,72.3,71.4,29.82,SSW,197,3.0,6.0,97,0.00,,,0.00,VWS V14.01,2013-09-02 02:31:00,
2013-09-01 22:36:00,72.3,71.4,29.83,South,178,2.0,5.0,97,0.00,,,0.00,VWS V14.01,2013-09-02 02:36:00,
2013-09-01 22:41:00,72.3,71.4,29.83,SE,139,4.0,5.0,97,0.00,,,0.00,VWS V14.01,2013-09-02 02:41:00,
2013-09-01 22:46:00,72.3,71.4,29.83,SSE,161,2.0,5.0,97,0.00,,,0.00,VWS V14.01,2013-09-02 02:46:00,
2013-09-01 22:51:00,72.3,71.4,29.83,SSE,158,2.0,5.0,97,0.00,,,0.00,VWS V14.01,2013-09-02 02:51:00,
2013-09-01 22:56:00,72.3,71.4,29.83,SE,138,4.0,5.0,97,0.00,,,0.00,VWS V14.01,2013-09-02 02:56:00,
2013-09-01 23:00:00,72.4,71.5,29.83,SE,130,4.0,5.0,97,0.00,,,0.00,VWS V14.01,2013-09-02 03:00:00,
2013-09-01 23:01:00,72.3,71.4,29.83,SSW,196,3.0,5.0,97,0.00,,,0.00,VWS V14.01,2013-09-02 03:01:00,
2013-09-01 23:06:00,72.4,71.5,29.83,ESE,123,2.0,5.0,97,0.00,,,0.00,VWS V14.01,2013-09-02 03:06:00,
2013-09-01 23:11:00,72.4,71.5,29.83,SSW,203,5.0,6.0,97,0.00,,,0.00,VWS V14.01,2013-09-02 03:11:00,
2013-09-01 23:16:00,72.4,71.5,29.83,SE,130,4.0,6.0,97,0.00,,,0.00,VWS V14.01,2013-09-02 03:16:00,
2013-09-01 23:21:00,72.4,71.5,29.83,SSE,161,2.0,6.0,97,0.00,,,0.00,VWS V14.01,2013-09-02 03:21:00,
2013-09-01 23:26:00,72.4,71.5,29.82,SSE,147,4.0,6.0,97,0.00,,,0.00,VWS V14.01,2013-09-02 03:26:00,
2013-09-01 23:30:00,72.3,71.4,29.82,SSE,161,1.0,6.0,97,0.00,,,0.00,VWS V14.01,2013-09-02 03:30:00,
2013-09-01 23:31:00,72.3,71.4,29.82,ESE,121,2.0,6.0,97,0.00,,,0.00,VWS V14.01,2013-09-02 03:31:00,
2013-09-01 23:36:00,72.3,71.4,29.82,SE,142,2.0,3.0,97,0.00,,,0.00,VWS V14.01,2013-09-02 03:36:00,
2013-09-01 23:41:00,72.2,71.3,29.82,SE,134,3.0,4.0,97,0.00,,,0.00,VWS V14.01,2013-09-02 03:41:00,
2013-09-01 23:46:00,72.2,71.3,29.82,SE,132,2.0,4.0,97,0.00,,,0.00,VWS V14.01,2013-09-02 03:46:00,
2013-09-01 23:51:00,72.2,71.3,29.82,SE,133,0.0,4.0,97,0.00,,,0.00,VWS V14.01,2013-09-02 03:51:00,
2013-09-01 23:56:00,72.2,71.3,29.82,SE,133,1.0,4.0,97,0.00,,,0.00,VWS V14.01,2013-09-02 03:56:00,